This is the latest recevied weather packets stored in our database for station/object W1GK. If no packets are shown the sender has not sent any weather packets the latest 10 day(s).
| Time | Temp. | Humidity | Pressure | Rain* | Wind** | Luminosity | Snow |
|---|---|---|---|---|---|---|---|
| 1788028194 | 37.22° C | 20% | 1013.8 hPa | 0 mm | - | 784 W/m² | - |
| 1788027595 | 37.78° C | 20% | 1013.9 hPa | 0 mm | - | 339 W/m² | - |
| 1788026994 | 38.33° C | 19% | 1014 hPa | 0 mm | - | 534 W/m² | - |
| 1788025795 | 37.22° C | 20% | 1014 hPa | 0 mm | - | 860 W/m² | - |
| 1788025195 | 37.22° C | 20% | 1014 hPa | 0 mm | - | 503 W/m² | - |
| 1788024596 | 37.22° C | 20% | 1013.9 hPa | 0 mm | - | 775 W/m² | - |
| 1788023996 | 37.22° C | 20% | 1014.1 hPa | 0 mm | - | 731 W/m² | - |
| 1788023396 | 36.67° C | 20% | 1014 hPa | 0 mm | - | 724 W/m² | - |
| 1788022797 | 36.11° C | 21% | 1014 hPa | 0 mm | - | 682 W/m² | - |
| 1788022195 | 36.11° C | 21% | 1013.9 hPa | 0 mm | - | 624 W/m² | - |
| 1788021596 | 35.56° C | 22% | 1013.8 hPa | 0 mm | - | 599 W/m² | - |
| 1788020997 | 35.56° C | 22% | 1013.8 hPa | 0 mm | - | 520 W/m² | - |
| 1788020396 | 35° C | 23% | 1013.8 hPa | 0 mm | - | 520 W/m² | - |
| 1788019797 | 34.44° C | 24% | 1013.8 hPa | 0 mm | - | 513 W/m² | - |
| 1788019193 | 33.89° C | 24% | 1013.8 hPa | 0 mm | - | 489 W/m² | - |
| 1788018596 | 33.89° C | 25% | 1013.8 hPa | 0 mm | - | 357 W/m² | - |
| 1788017996 | 33.89° C | 25% | 1013.9 hPa | 0 mm | - | 475 W/m² | - |
| 1788017394 | 33.33° C | 25% | 1014 hPa | 0 mm | - | 301 W/m² | - |
| 1788016795 | 33.33° C | 26% | 1013.9 hPa | 0 mm | - | 390 W/m² | - |
| 1788016196 | 32.78° C | 26% | 1014.1 hPa | 0 mm | - | 355 W/m² | - |
| 1788015595 | 32.22° C | 27% | 1014 hPa | 0 mm | - | 274 W/m² | - |
| 1788014994 | 32.22° C | 27% | 1014.1 hPa | 0 mm | - | 262 W/m² | - |
| 1788014394 | 31.67° C | 27% | 1014 hPa | 0 mm | - | 229 W/m² | - |
| 1788013794 | 31.11° C | 28% | 1013.9 hPa | 0 mm | - | 195 W/m² | - |
| 1788013194 | 31.11° C | 28% | 1013.8 hPa | 0 mm | - | 162 W/m² | - |
* Rain latest hour (hover to see other rain measurements)
** Current wind speed in m/s (hover to see current wind gust speed)